Terminal Aerodrome Forecast
Issued by NWS

Home | Current Version | Previous Version | Graphics & Text | Print | Product List | Glossary On
Versions: 1 2 3 4 5 6 7 8 9 10 11 12 13 14 15 16 17 18 19
000
FTUS43 KGRB 171400 AAA
TAFRHI
TAF AMD
KRHI 171420Z 1714/1812 12007KT 4SM -SN SCT006 OVC012
      TEMPO 1714/1716 1 1/2SM -SN BR
     FM171600 21008KT P6SM OVC015
     FM171900 25008KT P6SM BKN025
     FM180000 28004KT P6SM BKN015
     FM180600 28004KT 3SM BR SCT005=

USA.gov is the U.S. government's official web portal to all federal, state and local government web resources and services.